Hourly Data Report for September 01, 2017

All times are specified in Local Standard Time (LST). Add 1 hour to adjust for Daylight Saving Time where and when it is observed.

ALERT CLIMATE
NUNAVUT

82°30'00.000" N
62°20'00.000" W
65.40 m
2400305
71355
ZLT

Download Data

Hourly Data (September 2017)
Hourly Data Report for September 1, 2017
Temp Definition
°C
Dew Point Temp Definition
°C
Rel Hum Definition
%
Wind Dir Definition
10's deg

Wind Spd Definition
km/h
Visibility Definition
km
Stn Press Definition
kPa
Hmdx Definition


Wind Chill Definition


Weather Definition


TIME
00:00 -4.0 -4.4 97 5 11   98.73   -8 LegendNANA
01:00 -4.2 -4.6 97 3 9   98.79   -8 LegendNANA
02:00 -4.4 -4.8 97 35 11   98.83   -9 LegendNANA
03:00 -5.2 -5.6 97 35 14   98.87   -11 LegendNANA
04:00 -5.3 -5.7 97 35 17   98.93   -11 LegendNANA
05:00 -5.4 -5.8 97 34 15   99.00   -11 LegendNANA
06:00 -5.2 -5.7 96 35 14   99.07   -11 LegendNANA
07:00 -5.3 -6.0 95 35 16   99.13   -11 LegendNANA
08:00 -5.3 -6.0 95 35 17   99.21   -11 LegendNANA
09:00 -5.4 -6.2 94 36 12   99.29   -10 LegendNANA
10:00 -5.7 -6.6 94 35 16   99.34   -12 LegendNANA
11:00 -5.8 -6.5 94 34 21   99.38   -13 LegendNANA
12:00 -6.0 -6.8 94 33 28   99.43   -14 LegendNANA
13:00 -6.2 -7.1 94 34 23   99.48   -14 LegendNANA
14:00 -6.3 -7.1 94 35 14   99.52   -12 LegendNANA
15:00 -6.3 -7.3 92 35 10   99.58   -11 LegendNANA
16:00 -6.3 -7.7 90 33 18   99.63   -13 LegendNANA
17:00 -6.7 -7.7 93 34 15   99.70   -13 LegendNANA
18:00 -7.4 -8.3 93 33 8   99.75   -11 LegendNANA
19:00 -7.4 -8.2 94 34 11   99.80   -12 LegendNANA
20:00 -7.2 -8.2 92 33 11   99.85   -12 LegendNANA
21:00 -7.3 -8.1 94 25 5   99.89   -10 LegendNANA
22:00 -7.6 -8.3 95 29 4   99.92   -10 LegendNANA
23:00 -7.0 -8.0 93 32 7   99.94   -11 LegendNANA

Notes on Data Quality.

Legend

  • E = Estimated
  • M = Missing
  • NA = Not Available
  • ‡ = Partner data that is not subject to review by the National Climate Archives
Date modified: